EDT,Max TemperatureF,Mean TemperatureF,Min TemperatureF,Max Dew PointF,MeanDew PointF,Min DewpointF,Max Humidity, Mean Humidity, Min Humidity, Max Sea Level PressureIn, Mean Sea Level PressureIn, Min Sea Level PressureIn, Max VisibilityMiles, Mean VisibilityMiles, Min VisibilityMiles, Max Wind SpeedMPH, Mean Wind SpeedMPH, Max Gust SpeedMPH,PrecipitationIn, CloudCover, Events, WindDirDegrees
2013-3-1,40,36,32,32,30,28,89,80,70,29.94,29.91,29.88,10,9,7,17,7,20,0.01,8,Rain-Snow,263
2013-3-2,38,33,28,30,26,18,92,76,59,30.00,29.92,29.87,10,7,2,16,7,22,0.05,8,Snow,323
2013-3-3,33,29,25,21,17,14,81,67,53,30.07,30.01,29.99,10,9,2,17,8,21,T,8,Snow,296
2013-3-4,47,34,21,28,18,13,77,53,28,30.18,30.09,30.02,10,10,10,9,3,13,T,4,,251
2013-3-5,49,41,33,46,38,26,100,82,64,30.01,29.79,29.59,10,6,2,31,6,42,1.23,8,Rain-Snow,120
2013-3-6,33,31,28,29,25,21,85,77,69,30.22,29.94,29.73,10,6,1,25,12,33,0.02,8,Snow,257
2013-3-7,36,33,30,26,25,22,85,75,64,30.34,30.29,30.21,10,10,10,9,5,13,T,8,Snow,311
2013-3-8,47,37,27,26,24,22,85,62,38,30.39,30.34,30.30,10,10,10,13,5,17,0.00,3,,334
2013-3-9,65,44,23,31,25,18,96,56,16,30.33,30.24,30.16,10,10,10,8,2,11,0.00,1,,50
2013-3-10,72,55,37,35,31,29,79,51,23,30.15,30.08,30.01,10,10,10,13,4,20,0.00,6,,133
2013-3-11,59,55,50,51,45,31,100,69,38,30.02,29.88,29.79,10,8,2,21,8,26,0.59,7,Rain,168
2013-3-12,50,41,32,49,38,28,93,72,50,30.04,29.91,29.77,10,8,2,16,8,21,0.18,6,Rain,270
2013-3-13,43,35,27,29,22,13,92,66,40,30.26,30.11,30.03,10,10,2,26,10,34,T,4,Snow,274
2013-3-14,44,34,24,19,15,13,63,46,28,30.35,30.27,30.20,10,10,10,16,6,23,0.00,4,,274
2013-3-15,61,44,26,38,29,18,81,59,37,30.22,30.05,29.88,10,10,10,20,3,24,T,4,Rain,240
2013-3-16,72,56,40,50,44,38,96,67,38,29.86,29.80,29.72,10,10,8,28,11,35,0.03,5,Rain,243
2013-3-17,65,56,46,50,48,44,96,78,60,29.95,29.89,29.84,10,10,8,13,5,18,0.03,7,Rain,32
2013-3-18,59,50,41,50,45,37,100,77,53,29.92,29.85,29.76,10,7,2,18,5,25,0.88,7,Rain-Thunderstorm,97
2013-3-19,56,47,37,48,30,7,93,56,19,30.07,29.95,29.78,10,9,2,26,12,37,0.07,4,Rain,266
2013-3-20,53,40,26,28,14,8,68,44,19,30.10,29.98,29.82,10,10,10,29,9,36,T,4,,257
2013-3-21,37,30,22,13,9,7,62,47,32,30.01,29.92,29.86,10,10,10,22,11,26,0.00,3,,295
2013-3-22,46,31,16,19,14,11,80,54,27,30.07,30.02,29.99,10,10,10,12,3,14,0.00,4,,235
2013-3-23,53,44,34,36,30,21,76,61,45,30.01,29.94,29.81,10,10,10,8,1,11,T,7,,114
2013-3-24,54,48,41,45,41,35,100,83,65,29.79,29.57,29.37,10,8,2,35,7,41,0.78,8,Rain,104
2013-3-25,41,36,31,37,28,25,85,80,75,29.93,29.69,29.50,10,6,0,31,18,42,0.13,8,Fog-Rain-Snow,250
2013-3-26,39,35,30,30,27,26,85,78,70,30.22,30.06,29.94,10,8,2,17,10,22,0.01,8,Snow,265
2013-3-27,44,37,30,28,24,20,85,65,45,30.30,30.25,30.21,10,9,6,16,7,20,T,7,Snow,278
2013-3-28,51,38,24,24,21,19,81,55,29,30.32,30.28,30.23,10,10,10,15,4,21,0.00,2,,302
2013-3-29,52,38,23,37,28,20,92,60,28,30.33,30.29,30.23,10,10,8,23,5,27,T,4,Rain,235
2013-3-30,60,48,36,40,37,34,92,68,43,30.24,30.14,29.99,10,9,6,18,3,24,0.00,7,,164
2013-3-31,60,53,45,52,48,40,100,82,64,29.99,29.87,29.82,10,5,1,21,6,26,0.61,8,Rain,251